Starlink 32648

operational
NORAD ID: 62301 Int'l Des: 2024-239 Owner: SPXS Country: US Constellation: starlink
LEOCIRCULAR

About Starlink 32648

Description loading...

Live Position

Loading 3D Globe...

Upcoming Passes

Altitude History

Altitude vs Time

uPlot chart will show altitude changes over time

Two-Line Element Set

1 62301U 24239A 26095.15784051 .00047698 00000-0 16105-2 0 9994
2 62301 53.1610 58.3857 0001885 77.0822 283.0389 15.30234179 73619
Epoch: Apr 5, 2026 • Age: 12 hours

Current Status

Altitude 489.5 km
Velocity 7.62 km/s
Sub-Earth Point -40.46°S, 155.11°W
Launch Date Dec 13, 2024
Age 1.3 years
Type internet

Technical Details

Classification Payload
Mass 730.00 kg
Dry Mass 700.00 kg
Total Mass 730.00 kg
Length 0.30 m
Diameter 4.10 m
Span 29.00 m
Shape Box + pan
Manufacturer SPXS
Bus Type Starlink V2M
Phase Status In Orbit
Owner/State SPXS/US

Large Constellations

Loading constellations...